Find Kosmos-2556

NORAD ID: 52713 Int'l Des: 2022-054 Owner: VVKOV Country: RU operational
LEOCIRCULARRETROGRADESSO

Live Position

Loading 3D Globe...

About Kosmos-2556

Description loading...

Upcoming Passes

Passes for default location (London). Set your location on the main map for personalized predictions.

Altitude History

Loading altitude history...

Two-Line Element Set

1 52713U 22054A 26106.25906336 .00001406 00000-0 57928-4 0 9996
2 52713 97.6241 54.7036 0001483 61.1976 298.9410 15.25838959217299
Epoch: Apr 16, 2026 • Age: 12 hours

Current Status

Altitude 517.4 km
Velocity 7.60 km/s
Sub-Earth Point -80.96°S, 57.63°E
Launch Date May 19, 2022
Age 3.9 years
Type other

Technical Details

Classification Payload
Mass 3700.00 kg
Dry Mass 3500.00 kg
Total Mass 3700.00 kg
Length 6.00 m
Diameter 2.70 m
Span 10.00 m
Shape Cyl + 2 Pan
Manufacturer ARSLO
Bus Type Bars
Phase Status In Orbit
Owner/State VVKOV/RU

Most Searched